This is the latest recevied weather packets stored in our database for station/object OE-11213. If no packets are shown the sender has not sent any weather packets the latest 10 day(s).
| Time | Temp. | Humidity | Pressure | Rain* | Wind** | Luminosity | Snow |
|---|---|---|---|---|---|---|---|
| 1788178304 | 28.89° C | 42% | 1012.8 hPa | 0 mm | - | 747 W/m² | - |
| 1788177931 | 28.33° C | 41% | 1013.1 hPa | 0 mm | - | 754 W/m² | - |
| 1788177331 | 28.33° C | 42% | 1013.1 hPa | 0 mm | - | 761 W/m² | - |
| 1788176504 | 27.78° C | 41% | 1013.5 hPa | 0 mm | - | 747 W/m² | - |
| 1788176131 | 27.78° C | 43% | 1013.5 hPa | 0 mm | - | 798 W/m² | - |
| 1788175531 | 27.78° C | 43% | 1013.6 hPa | 0 mm | - | 798 W/m² | - |
| 1788174704 | 27.22° C | 44% | 1013.8 hPa | 0 mm | - | 747 W/m² | - |
| 1788174331 | 27.22° C | 43% | 1013.8 hPa | 0 mm | - | 645 W/m² | - |
| 1788173731 | 27.22° C | 46% | 1014 hPa | 0 mm | - | 754 W/m² | - |
| 1788172904 | 26.67° C | 45% | 1014.1 hPa | 0 mm | - | 783 W/m² | - |
| 1788171931 | 26.67° C | 50% | 1014.2 hPa | 0 mm | - | 740 W/m² | - |
| 1788171104 | 26.67° C | 48% | 1014.3 hPa | 0 mm | - | 732 W/m² | - |
| 1788170731 | 26.11° C | 49% | 1014.7 hPa | 0 mm | - | 725 W/m² | - |
| 1788170131 | 26.11° C | 50% | 1014.8 hPa | 0 mm | - | 711 W/m² | - |
| 1788169304 | 25.56° C | 51% | 1014.9 hPa | 0 mm | - | 696 W/m² | - |
| 1788168931 | 25.56° C | 51% | 1014.9 hPa | 0 mm | - | 682 W/m² | - |
| 1788168331 | 25° C | 52% | 1015.1 hPa | 0 mm | - | 667 W/m² | - |
| 1788167504 | 25° C | 54% | 1015.1 hPa | 0 mm | - | 645 W/m² | - |
| 1788167131 | 23.89° C | 56% | 1015.2 hPa | 0 mm | - | 638 W/m² | - |
| 1788166531 | 23.89° C | 56% | 1015.3 hPa | 0 mm | - | 616 W/m² | - |
| 1788165704 | 23.33° C | 57% | 1015.4 hPa | 0 mm | - | 580 W/m² | - |
| 1788164731 | 22.78° C | 59% | 1015.6 hPa | 0 mm | - | 551 W/m² | - |
| 1788163904 | 22.78° C | 61% | 1015.7 hPa | 0 mm | - | 529 W/m² | - |
| 1788163531 | 21.67° C | 63% | 1015.9 hPa | 0 mm | - | 508 W/m² | - |
| 1788162931 | 21.11° C | 63% | 1016 hPa | 0 mm | - | 479 W/m² | - |
* Rain latest hour (hover to see other rain measurements)
** Current wind speed in m/s (hover to see current wind gust speed)